Regional Weather Roundup
Issued by NWS

Home | Current Version | Previous Version | Graphics & Text | Print | Product List | Glossary On
Versions: 1 2 3 4 5 6 7 8 9 10 11 12 13 14 15 16 17 18 19 20 21 22 23 24 25 26 27 28 29 30 31 32 33 34 35 36 37 38 39 40 41 42 43 44 45 46 47 48 49 50
000
ASUS43 KFSD 251710
RWRSD

WEATHER ROUNDUP FOR SOUTH DAKOTA
NATIONAL WEATHER SERVICE SIOUX FALLS SD
1200 PM CDT SUN SEP 25 2016

NOTE: "FAIR" INDICATES FEW OR NO CLOUDS BELOW 12,000 FEET WITH NO
SIGNIFICANT WEATHER AND/OR OBSTRUCTIONS TO VISIBILITY.


SDZ001>005-009-010-012>017-251800-
NORTHWEST AND NORTH CENTRAL SOUTH DAKOTA

CITY           SKY/WX    TMP DP  RH WIND       PRES   REMARKS
BUFFALO          N/A     56  35  45 NW29G40   30.23R
FAITH            N/A     58  34  40 NW36G43   30.23R
MOBRIDGE       SUNNY     61  37  41 NW25G40   30.09R
$$

SDZ012>016-024>037-041>051-057-063-072>074-251800-
SOUTHWEST AND SOUTH CENTRAL SOUTH DAKOTA

CITY           SKY/WX    TMP DP  RH WIND       PRES   REMARKS
RAPID CTY ARPT SUNNY     59  31  34 NW25G35   30.34R
PIERRE         SUNNY     63  35  35 NW37G48   30.14R
CUSTER         SUNNY     50  23  34 NW12G22   30.38R
ELLSWORTH AFB  SUNNY     58  32  37 NW23G33   30.33R
PHILIP         SUNNY     62  35  36 NW28G39   30.26R
PINE RIDGE     SUNNY     61  27  27 NW18G28   30.35S
WINNER         FAIR      65  36  34 NW30G39   30.20R
$$

SDZ004>011-016>023-039-040-251800-
NORTHEAST SOUTH DAKOTA

CITY           SKY/WX    TMP DP  RH WIND       PRES   REMARKS
ABERDEEN       CLOUDY    60  45  57 NW25G38   30.01R
WATERTOWN      CLOUDY    57  49  74 W18G30    29.98R
BROOKINGS      CLOUDY    57  49  74 W25       30.00R
SISSETON         N/A     59  50  72 NW23G33   29.91R
$$

SDZ017-020-022-023-036>040-048>070-251800-
SOUTHEAST SOUTH DAKOTA

CITY           SKY/WX    TMP DP  RH WIND       PRES   REMARKS
SIOUX FALLS    CLOUDY    59  49  69 NW23G32   30.05R
HURON          CLOUDY    61  46  57 NW29G36   30.06R
CHAMBERLAIN    MOSUNNY   65  43  45 NW30G37   30.15R
MITCHELL       CLOUDY    61  46  57 NW14G30   30.10R
YANKTON        PTSUNNY  N/A N/A N/A NW28G40   30.08S
$$

ABBREVIATIONS USED IN REMARKS
   TC - TEMPERATURE IN CELSIUS
  WCI - WIND CHILL INDEX
   HX - HEAT INDEX
  VSB - VISIBILITY




USA.gov is the U.S. government's official web portal to all federal, state and local government web resources and services.